Weather History for Cotulla, TX

Change the Weather History Date:

Tuesday, February 19, 2013

  Actual Average Record
Temperature  
Mean Temperature 61 °F -  
Max Temperature 68 °F 71 °F 86 °F (2014)
Min Temperature 54 °F 48 °F 32 °F (2006)
Degree Days  
Heating Degree Days 4    
Growing Degree Days 11 (Base 50)    
Moisture  
Dew Point 35 °F    
Average Humidity 40    
Maximum Humidity 72    
Minimum Humidity 27    
Precipitation  
Precipitation 0.00 in - - ()
Sea Level Pressure  
Sea Level Pressure 30.10 in    
Wind  
Wind Speed 13 mph (East)    
Max Wind Speed 21 mph    
Max Gust Speed 29 mph    
Visibility 10 miles    
Events      
Averages and records for this station are not official NWS values.
T = Trace of Precipitation, MM = Missing Value Source: NWS Daily Summary

Daily Weather History Graph

Daily Weather History Graph

Search for Another Location

Airport:

Trip Planner

Search our weather history database for the weather conditions in past years. The results will help you decide how hot, cold, wet, or windy it might be!

Date:

Astronomy

Feb. 19, 2013 Rise Set
Actual Time 7:11 AM CST 6:30 PM CST
Civil Twilight 6:47 AM CST 6:54 PM CST
Nautical Twilight 6:19 AM CST 7:21 PM CST
Astronomical Twilight 5:52 AM CST 7:49 PM CST
Moon 1:17 PM CST (2/19) 2:29 AM CST (2/19)
Length of Visible Light 12h 07m
Length of Day
11h 19m
Waxing Gibbous, 67% of the Moon is Illuminated
Feb 19
Waxing Gibbous
Feb 25
Full
Mar 4
Last Quarter
Mar 11
New
Mar 19
First Quarter

Hourly Weather History & Observations

Time (CST) Temp. Dew Point Humidity Pressure Visibility Wind Dir Wind Speed Gust Speed Precip Events Conditions
12:53 AM 59.0 °F 28.0 °F 31% 30.02 in 10.0 mi NE 10.4 mph - N/A   Clear
1:53 AM 60.1 °F 30.9 °F 33% 30.05 in 10.0 mi ENE 11.5 mph 18.4 mph N/A   Clear
2:53 AM 59.0 °F 32.0 °F 36% 30.06 in 10.0 mi ENE 15.0 mph 21.9 mph N/A   Clear
3:53 AM 57.9 °F 32.0 °F 37% 30.08 in 10.0 mi ENE 13.8 mph 27.6 mph N/A   Clear
4:53 AM 55.9 °F 33.1 °F 42% 30.09 in 10.0 mi ENE 15.0 mph 20.7 mph N/A   Clear
5:53 AM 55.0 °F 34.0 °F 45% 30.12 in 10.0 mi ENE 9.2 mph - N/A   Clear
6:53 AM 54.0 °F 34.0 °F 47% 30.15 in 10.0 mi East 10.4 mph - N/A   Clear
7:53 AM 54.0 °F 35.1 °F 49% 30.18 in 10.0 mi ENE 10.4 mph - N/A   Mostly Cloudy
8:53 AM 55.9 °F 35.1 °F 45% 30.19 in 10.0 mi East 16.1 mph 19.6 mph N/A   Overcast
9:53 AM 59.0 °F 34.0 °F 39% 30.20 in 10.0 mi East 17.3 mph 24.2 mph N/A   Overcast
10:53 AM 61.0 °F 34.0 °F 36% 30.21 in 10.0 mi ESE 16.1 mph - N/A   Mostly Cloudy
12:53 PM 66.0 °F 32.0 °F 28% 30.17 in 10.0 mi East 16.1 mph - N/A   Overcast
1:53 PM 66.9 °F 34.0 °F 30% 30.13 in 10.0 mi ESE 12.7 mph 19.6 mph N/A   Overcast
2:53 PM 68.0 °F 33.1 °F 27% 30.10 in 10.0 mi ESE 16.1 mph - N/A   Overcast
3:53 PM 68.0 °F 35.1 °F 30% 30.07 in 10.0 mi East 11.5 mph - N/A   Overcast
4:53 PM 66.9 °F 36.0 °F 32% 30.05 in 10.0 mi ESE 16.1 mph - N/A   Mostly Cloudy
6:53 PM 64.9 °F 34.0 °F 32% 30.05 in 10.0 mi ESE 15.0 mph 23.0 mph N/A   Overcast
7:53 PM 64.0 °F 30.9 °F 29% 30.04 in 10.0 mi ESE 20.7 mph 28.8 mph N/A   Overcast
8:53 PM 62.1 °F 34.0 °F 35% 30.04 in 10.0 mi ESE 15.0 mph 24.2 mph N/A   Overcast
9:53 PM 60.1 °F 45.0 °F 57% 30.04 in 10.0 mi ESE 12.7 mph - N/A   Mostly Cloudy
10:53 PM 60.1 °F 48.9 °F 67% 30.06 in 10.0 mi ESE 8.1 mph - N/A   Overcast
11:53 PM 59.0 °F 50.0 °F 72% 30.07 in 10.0 mi East 10.4 mph - N/A   Overcast